Temp
8 8 9 9 9 9 9 9 8 8 8 8 8 7 7 9 8 9 8 8 8 9 9 9 9 9 9 9 9 9 9 9 9 9 8 8 9 9 9 9 9 9 9
8 8 8 9 9 9 9 8 8 9 8 8 8 9 8 8 9 9 8 8 9 9 9 9 9 9 9 9 9 9 9 9 9 9 9 9 9 9 9 9 9 9 9
8 8 7 8 8 8 8 8 8 9 9 8 9 9 8 8 8 8 8 8 8 8 9 9 9 9 9 9 9 9 9 9 9 9 9 9 9 9 9 9 10 9 9
8 7 7 7 7 7 8 8 7 8 8 8 8 9 8 8 8 8 7 7 8 8 8 9 9 9 9 9 9 9 9 9 9 9 9 9 8 7 6 8 9 9 9
8 8 7 7 7 6 7 7 7 7 7 7 7 8 8 8 8 7 7 7 7 8 8 8 9 9 9 9 9 9 9 9 9 9 9 8 6 6 8 9 9 9 9
7 7 8 7 7 6 6 7 7 7 7 7 7 7 7 7 7 7 7 7 7 7 8 8 8 8 9 9 9 9 9 9 9 9 9 7 6 8 9 9 9 9 9
5 5 6 7 7 7 7 7 7 7 6 6 7 7 7 7 7 7 7 6 7 6 7 8 8 8 9 9 9 9 8 9 8 9 9 9 9 9 9 9 9 9 9
6 6 6 7 7 7 7 7 6 6 6 6 6 6 7 7 7 7 7 7 7 6 7 7 8 8 9 9 9 9 8 8 8 8 9 9 9 9 9 9 9 9 9
6 5 6 6 7 7 7 7 7 6 6 6 6 6 6 7 7 6 6 7 6 6 6 7 7 8 8 9 8 9 9 9 8 8 9 9 8 8 9 9 9 9 9
6 5 5 6 6 6 7 7 7 7 6 6 6 6 6 6 6 6 6 6 6 5 5 6 7 7 8 8 8 8 9 9 9 9 9 9 9 9 9 9 9 9 9
6 6 6 6 6 6 6 7 7 7 6 6 6 6 6 6 6 6 5 6 6 5 6 5 6 7 8 8 8 8 9 9 9 9 9 8 8 9 9 9 9 9 9
6 6 6 6 6 6 6 6 6 6 6 6 6 6 6 6 6 6 5 5 5 5 6 6 6 7 7 8 8 8 8 9 9 9 9 9 8 9 9 9 9 9 9
5 5 5 5 5 6 6 6 6 6 6 5 5 5 6 6 6 6 5 5 5 6 6 6 6 7 7 7 8 8 8 9 9 9 9 8 8 9 9 8 8 8 8
4 5 5 5 5 5 6 6 6 5 5 5 5 5 5 5 5 5 5 5 5 5 6 6 6 6 6 7 7 7 8 8 8 8 8 8 8 8 8 8 8 8 8
4 4 4 5 5 5 5 5 5 6 5 5 5 5 5 5 5 5 5 5 5 5 6 6 6 6 6 7 7 7 8 8 8 8 8 8 8 8 8 8 8 8 8
3 4 4 4 4 5 5 5 5 5 5 4 4 4 5 5 5 5 4 4 4 5 5 6 5 6 6 6 7 7 8 8 7 7 7 8 8 8 8 8 8 7 7
3 3 3 4 4 4 4 3 4 4 4 4 4 4 4 4 4 4 5 4 4 5 5 5 5 6 6 6 6 7 7 7 7 7 7 8 8 7 7 7 7 7 7
3 3 3 3 3 3 3 2 2 3 3 3 3 3 4 3 4 4 4 4 4 4 4 5 5 5 6 6 6 7 7 7 7 7 7 7 7 7 7 7 7 7 7
3 3 3 3 2 2 1 1 1 1 2 2 2 2 3 3 3 3 4 5 4 4 4 4 5 5 6 6 6 6 6 6 6 6 6 6 7 6 6 6 6 7 6
3 3 2 2 1 1 1 1 0 1 1 1 1 1 2 2 3 3 3 3 4 3 4 4 4 4 5 6 6 6 6 6 5 5 5 6 6 6 6 6 6 6 6
3 3 2 2 1 1 1 0 -0 -0 0 0 0 0 1 1 1 2 2 3 2 4 3 4 4 4 5 5 5 5 5 5 4 5 5 5 5 5 5 5 5 5 5
2 3 2 1 1 1 0 0 -0 -1 -1 -0 -0 0 1 1 1 1 1 2 2 2 3 3 4 4 4 5 6 5 5 5 5 5 5 5 5 5 5 5 5 5 4
2 2 2 1 1 0 -0 -1 -1 -1 -2 -1 -1 -0 1 1 1 2 2 2 1 2 1 3 3 4 5 5 5 5 5 5 6 5 5 5 5 5 5 5 4 4 4
2 2 1 1 0 -0 -1 -1 -1 -2 -2 -1 -1 -1 0 1 2 2 2 2 1 1 0 0 3 4 4 5 5 5 4 4 5 5 5 5 5 4 4 4 4 3 3
2 2 1 1 0 -0 -1 -2 -3 -3 -2 -3 -3 -2 -1 0 1 1 1 2 2 0 0 -1 1 3 3 4 5 5 5 4 4 3 4 4 4 4 4 4 3 3 3
2 2 1 0 -1 -2 -2 -2 -3 -3 -3 -3 -2 -2 -3 -3 -2 -1 -1 -1 -1 -0 0 -1 -1 2 3 3 3 3 3 3 4 3 3 3 2 3 3 3 3 3 2
Height
3135 3135 3136 3137 3138 3138 3139 3140 3140 3141 3142 3143 3145 3147 3148 3149 3151 3152 3152 3153 3154 3155 3155 3155 3156 3157 3157 3158 3158 3159 3159 3160 3161 3161 3161 3161 3162 3163 3163 3164 3164 3166 3166
3134 3135 3136 3137 3137 3138 3138 3140 3140 3141 3142 3143 3144 3145 3146 3147 3149 3150 3152 3153 3153 3155 3155 3155 3156 3157 3157 3158 3158 3159 3160 3161 3161 3162 3162 3162 3163 3163 3164 3165 3166 3167 3168
3133 3134 3135 3136 3137 3137 3137 3139 3140 3140 3141 3142 3144 3144 3146 3147 3148 3149 3151 3152 3153 3154 3155 3156 3156 3157 3157 3158 3159 3159 3160 3161 3162 3163 3163 3163 3164 3165 3165 3166 3167 3169 3170
3131 3132 3133 3134 3135 3136 3136 3137 3138 3140 3140 3141 3142 3144 3145 3147 3148 3149 3150 3151 3153 3153 3155 3156 3156 3157 3157 3158 3159 3160 3161 3162 3162 3164 3164 3165 3165 3166 3167 3167 3168 3170 3171
3129 3130 3131 3132 3133 3133 3135 3135 3136 3138 3140 3141 3142 3143 3144 3146 3147 3148 3150 3151 3152 3152 3154 3155 3156 3156 3157 3158 3159 3160 3161 3162 3163 3164 3165 3166 3168 3168 3167 3169 3170 3171 3173
3124 3125 3126 3128 3130 3131 3132 3134 3134 3136 3138 3140 3141 3142 3143 3144 3146 3148 3149 3150 3151 3151 3152 3155 3155 3156 3156 3158 3160 3161 3162 3163 3163 3165 3166 3167 3167 3168 3169 3170 3172 3173 3174
3120 3120 3121 3123 3125 3127 3129 3131 3132 3133 3135 3137 3139 3140 3142 3143 3145 3146 3148 3149 3150 3150 3152 3153 3154 3155 3155 3157 3159 3160 3162 3163 3164 3165 3166 3167 3168 3169 3171 3172 3174 3175 3175
3116 3117 3118 3118 3120 3122 3125 3127 3129 3131 3132 3133 3135 3137 3140 3141 3143 3145 3147 3149 3149 3149 3151 3151 3153 3153 3154 3156 3159 3160 3162 3163 3165 3165 3166 3168 3169 3170 3172 3173 3174 3175 3176
3114 3114 3114 3115 3115 3117 3119 3122 3124 3127 3128 3130 3132 3134 3136 3138 3140 3141 3144 3146 3147 3149 3151 3151 3151 3151 3153 3155 3157 3159 3161 3163 3164 3165 3166 3168 3169 3170 3171 3173 3174 3175 3176
3111 3112 3112 3111 3112 3113 3114 3116 3118 3122 3124 3126 3128 3130 3132 3134 3136 3138 3140 3143 3145 3147 3149 3150 3150 3149 3151 3153 3156 3158 3160 3161 3162 3164 3165 3167 3169 3170 3171 3173 3174 3175 3176
3107 3108 3108 3107 3107 3108 3109 3111 3113 3115 3118 3121 3123 3125 3128 3130 3132 3135 3137 3140 3142 3144 3146 3147 3148 3148 3149 3151 3154 3156 3158 3160 3161 3162 3164 3167 3168 3169 3170 3173 3174 3175 3176
3103 3103 3103 3104 3103 3102 3104 3106 3107 3109 3111 3114 3117 3120 3122 3126 3128 3131 3133 3135 3137 3140 3142 3144 3145 3145 3147 3149 3152 3154 3156 3158 3160 3161 3163 3166 3167 3169 3170 3172 3174 3175 3176
3098 3099 3097 3098 3098 3098 3098 3099 3101 3103 3105 3108 3111 3114 3117 3120 3123 3125 3128 3130 3132 3136 3138 3140 3141 3143 3145 3147 3150 3152 3154 3156 3159 3160 3163 3165 3166 3168 3170 3172 3174 3175 3176
3091 3092 3093 3092 3092 3092 3092 3093 3094 3095 3098 3101 3105 3107 3110 3114 3116 3119 3123 3125 3128 3131 3134 3137 3138 3140 3142 3145 3146 3149 3151 3154 3157 3158 3161 3163 3164 3166 3168 3171 3172 3174 3175
3086 3085 3085 3085 3085 3085 3084 3085 3086 3088 3089 3092 3096 3100 3102 3106 3109 3112 3117 3120 3122 3126 3129 3132 3135 3137 3139 3142 3143 3146 3148 3152 3154 3156 3159 3161 3162 3164 3167 3169 3170 3172 3173
3080 3080 3079 3078 3077 3076 3077 3077 3077 3078 3081 3083 3087 3090 3094 3097 3101 3104 3109 3113 3116 3120 3124 3127 3131 3133 3135 3137 3140 3142 3145 3148 3151 3153 3156 3158 3160 3162 3164 3166 3169 3170 3172
3073 3073 3072 3070 3069 3067 3066 3067 3068 3068 3070 3073 3076 3080 3084 3088 3092 3096 3101 3106 3110 3114 3119 3121 3124 3127 3129 3132 3135 3138 3141 3145 3147 3150 3153 3155 3157 3160 3162 3164 3167 3168 3170
3067 3066 3064 3062 3060 3059 3057 3057 3059 3060 3061 3063 3067 3070 3074 3079 3084 3089 3093 3098 3103 3107 3112 3115 3117 3121 3125 3127 3131 3134 3137 3140 3143 3147 3150 3152 3155 3157 3159 3161 3164 3166 3167
3061 3058 3056 3055 3053 3051 3050 3049 3050 3052 3052 3055 3057 3061 3064 3069 3075 3080 3083 3089 3094 3099 3103 3108 3111 3115 3120 3123 3126 3130 3133 3136 3139 3143 3146 3149 3152 3155 3157 3159 3161 3163 3165
3053 3051 3048 3045 3045 3044 3043 3042 3042 3043 3044 3046 3048 3051 3055 3058 3063 3067 3076 3076 3086 3088 3094 3099 3105 3108 3114 3118 3121 3124 3128 3131 3134 3138 3141 3145 3148 3151 3154 3156 3158 3159 3162
3047 3045 3042 3039 3038 3037 3036 3035 3034 3035 3036 3036 3038 3041 3045 3048 3053 3057 3063 3067 3068 3073 3085 3093 3099 3102 3107 3110 3114 3117 3121 3126 3128 3132 3135 3139 3143 3146 3149 3152 3154 3156 3158
3042 3039 3036 3034 3032 3031 3029 3028 3026 3025 3025 3026 3028 3030 3034 3038 3043 3048 3052 3058 3063 3067 3075 3083 3090 3094 3097 3104 3105 3110 3115 3120 3122 3127 3131 3134 3138 3141 3145 3147 3150 3152 3153
3036 3034 3031 3028 3026 3023 3021 3018 3015 3012 3012 3015 3019 3020 3024 3028 3033 3038 3043 3049 3055 3056 3063 3076 3082 3086 3092 3095 3101 3105 3108 3111 3119 3122 3126 3129 3132 3137 3140 3143 3145 3148 3150
3031 3028 3025 3022 3018 3015 3013 3009 3005 3002 3003 3006 3008 3010 3012 3018 3022 3026 3032 3039 3048 3051 3052 3062 3076 3080 3086 3091 3096 3099 3103 3110 3113 3118 3122 3125 3128 3131 3135 3138 3141 3143 3145
3026 3023 3020 3016 3011 3007 3004 2998 2994 2991 2994 2997 2999 3000 3002 3006 3011 3017 3022 3029 3033 3042 3049 3053 3068 3073 3079 3084 3090 3094 3098 3104 3107 3112 3118 3122 3125 3128 3131 3133 3136 3138 3140
3022 3018 3014 3010 3004 3002 2997 2992 2988 2987 2988 2990 2992 2994 2996 3000 3006 3009 3014 3021 3026 3035 3042 3050 3061 3068 3072 3078 3083 3088 3094 3099 3104 3109 3113 3116 3120 3123 3125 3128 3131 3133 3135
Wind_Speed
6 3 3 4 6 7 6 5 6 8 10 12 14 14 13 15 15 15 13 11 10 8 7 7 8 8 7 7 7 7 7 7 8 9 10 10 11 10 10 10 11 12 12
7 5 3 4 6 7 7 7 7 9 10 11 13 15 16 16 15 15 13 11 10 9 8 9 9 8 7 7 7 7 8 9 10 10 11 10 10 10 10 9 11 12 12
11 10 9 7 5 8 9 9 9 10 11 11 12 13 15 16 16 15 13 12 11 10 10 10 10 9 9 8 9 8 9 10 11 11 11 11 9 8 8 9 11 11 12
13 12 11 10 7 5 10 12 11 11 12 12 12 12 14 15 15 15 14 13 13 12 11 13 11 11 10 9 9 10 10 11 11 11 11 11 9 10 12 14 13 14 12
19 19 16 13 13 10 7 12 13 12 13 13 13 13 14 15 15 15 14 14 15 15 13 14 12 11 10 10 10 10 10 11 12 12 11 12 14 15 14 14 14 13 11
21 23 26 23 18 18 15 13 15 14 15 15 15 14 14 15 15 14 13 12 13 15 16 15 14 13 12 11 10 10 10 12 13 13 12 15 15 15 12 12 12 12 11
22 24 25 26 27 23 21 19 17 17 18 18 18 17 17 16 15 15 15 14 15 15 17 16 14 14 14 12 12 12 12 13 13 14 13 11 11 11 11 11 12 11 10
17 19 22 25 26 28 25 23 21 19 21 22 22 20 19 17 17 18 19 20 21 20 19 16 15 16 15 14 14 14 14 13 13 15 13 11 10 10 9 10 10 10 10
13 15 18 18 23 26 30 27 25 25 22 25 25 24 22 20 20 23 23 26 26 25 22 17 17 17 17 16 15 15 15 15 15 15 15 14 12 10 10 10 10 10 10
12 13 17 20 20 22 27 30 29 29 28 24 27 27 26 24 23 23 25 26 29 29 26 19 18 19 18 18 17 16 16 16 16 17 16 15 14 13 11 11 11 11 10
16 15 15 17 20 22 23 27 31 30 30 31 27 30 29 27 26 28 27 26 28 29 29 25 21 21 21 20 18 17 16 16 16 16 17 17 15 13 12 11 11 11 10
18 17 16 17 20 23 24 26 28 32 32 32 32 30 34 31 29 32 30 28 29 28 29 28 24 24 23 21 20 19 19 17 17 18 19 18 16 13 13 12 11 10 10
21 19 20 18 20 24 26 27 29 31 33 32 34 34 35 35 35 36 35 33 31 28 29 30 27 26 24 23 21 21 20 18 18 19 18 18 16 14 13 12 11 10 9
22 21 19 21 20 23 26 28 31 34 34 36 37 38 39 39 39 39 38 36 35 31 29 31 29 27 26 25 24 24 21 20 18 18 20 18 16 15 14 13 12 11 9
21 22 22 22 23 24 26 28 30 33 37 37 40 41 43 43 45 42 40 39 38 34 30 33 31 29 28 27 27 26 24 21 19 20 20 19 18 16 15 14 13 12 11
21 22 23 24 26 28 29 32 33 35 37 40 41 45 45 47 48 47 44 43 40 39 33 34 33 31 30 29 30 29 26 23 21 22 21 21 20 18 17 16 15 13 12
26 27 28 28 28 28 30 31 33 37 38 41 43 46 48 46 51 51 51 44 43 41 37 35 36 36 34 31 32 31 28 25 24 24 23 22 22 19 19 17 16 15 14
27 26 28 27 27 27 27 29 30 35 39 40 43 47 51 50 46 51 51 50 43 44 40 38 37 38 37 34 34 33 29 26 25 25 25 24 23 22 20 19 17 16 15
28 28 26 28 26 25 26 29 29 33 39 40 42 46 50 53 50 51 50 55 51 46 43 40 39 39 39 35 35 33 32 27 27 26 25 25 24 23 21 20 19 18 17
27 26 27 25 22 23 25 29 32 32 37 41 42 44 48 54 59 55 53 47 59 51 47 43 42 40 39 36 36 36 33 30 28 27 27 26 25 24 23 21 20 18 17
26 25 24 23 24 25 27 29 31 34 37 41 43 44 46 51 58 51 59 57 51 54 50 45 43 43 42 41 38 38 36 32 32 31 29 29 27 26 25 23 21 20 19
24 24 24 25 26 26 30 29 35 40 39 43 43 46 49 50 53 52 58 61 50 54 51 49 46 46 45 42 42 40 38 37 36 33 32 31 30 28 26 25 23 23 21
23 23 23 24 25 25 27 33 33 36 41 41 42 45 48 48 49 53 56 54 52 56 55 51 47 47 44 43 39 40 40 40 35 35 35 33 31 30 28 27 25 23 21
22 22 23 23 26 28 30 34 42 40 36 36 38 42 45 48 48 50 48 46 57 53 57 49 46 45 42 41 41 41 39 34 34 34 35 34 33 31 30 28 26 24 22
23 21 25 24 27 25 24 30 25 27 32 35 28 30 36 45 43 46 45 50 50 55 56 52 44 44 41 39 39 40 38 36 34 33 31 31 31 30 29 28 27 26 25
26 18 24 26 22 22 25 26 22 27 30 33 31 27 25 29 31 31 33 37 43 59 52 49 44 40 39 37 37 36 34 32 31 30 30 29 27 27 28 28 27 26 26
Wind_Direction
162 151 184 193 197 185 191 219 219 222 225 228 229 218 211 216 217 215 215 218 229 236 233 224 205 202 207 211 213 210 197 188 177 164 155 145 145 140 137 129 119 113 111
207 205 217 229 221 211 206 208 223 222 221 222 230 230 222 222 217 218 221 226 229 234 236 217 210 213 218 221 220 209 197 185 176 164 153 146 131 136 136 130 126 120 113
235 220 226 241 240 239 223 226 223 224 217 221 229 228 221 219 221 220 221 232 232 231 237 218 216 223 226 224 219 207 194 183 173 162 156 149 145 145 145 140 131 125 122
229 232 227 231 235 225 235 229 229 228 221 221 225 222 222 222 222 225 228 230 238 234 234 220 220 226 230 222 215 200 189 179 169 165 163 156 144 129 125 127 126 131 118
242 241 240 234 234 243 248 238 227 226 229 223 221 223 222 224 228 230 233 241 242 236 229 222 218 227 233 219 208 186 180 174 175 175 172 155 131 142 140 126 124 120 118
260 253 247 243 240 238 248 246 236 222 227 224 228 225 227 229 231 233 236 238 241 245 217 220 222 226 229 220 204 186 176 178 184 183 181 160 159 148 139 134 127 126 127
257 258 258 248 246 247 249 250 244 231 222 222 227 228 231 231 232 232 226 222 230 229 214 215 225 229 231 218 203 191 186 187 196 195 184 164 158 145 146 138 137 137 134
250 253 254 255 247 247 249 249 247 244 229 221 225 227 230 231 230 228 219 217 222 230 216 214 223 230 229 219 208 198 195 193 200 203 198 180 164 158 160 147 142 139 130
249 255 260 256 253 246 248 248 244 243 242 232 224 226 224 226 228 231 220 218 225 232 230 219 220 229 230 218 214 207 204 202 203 206 207 196 185 175 169 157 152 141 133
252 247 253 259 255 249 244 246 247 241 241 242 231 226 225 224 226 226 220 218 227 231 233 230 225 225 227 220 214 214 213 211 211 212 211 203 189 177 168 164 158 146 139
265 262 259 258 257 254 246 245 245 245 240 239 237 230 228 224 222 218 221 222 224 236 241 236 229 227 224 221 213 215 217 211 212 211 202 191 187 180 171 169 165 155 150
272 273 267 260 259 258 252 248 245 244 240 237 236 236 228 225 223 221 224 228 233 246 240 232 232 228 225 218 217 213 214 214 208 200 190 189 189 183 177 176 176 166 161
275 275 274 268 259 257 257 253 248 244 241 235 234 234 233 226 222 221 225 231 234 244 241 231 233 232 228 219 214 220 217 213 209 199 193 189 191 185 185 182 181 177 170
282 280 274 272 269 263 260 256 251 246 241 235 230 231 231 229 224 225 225 233 237 243 241 234 235 236 234 223 215 218 219 217 210 199 198 191 191 189 187 192 189 186 179
288 289 288 283 278 270 266 263 258 249 242 236 230 229 229 230 228 227 229 228 237 241 240 236 236 236 235 228 219 217 218 218 204 204 202 197 195 193 192 198 195 195 191
291 293 293 288 284 280 271 265 262 254 245 237 232 229 230 229 231 229 224 234 236 240 242 237 236 238 235 232 225 217 217 215 205 209 204 203 200 198 197 203 203 201 205
292 291 291 291 287 287 277 265 256 251 245 238 231 229 228 232 230 234 230 230 236 238 242 236 232 234 230 228 225 220 215 213 208 209 209 207 207 202 204 205 208 210 210
299 300 298 295 295 287 274 264 255 248 247 240 235 229 227 229 230 231 236 230 233 237 238 238 231 231 231 227 226 222 218 210 212 209 211 212 211 209 208 210 212 213 218
305 303 301 298 290 277 269 266 258 248 246 244 240 232 230 227 232 227 233 233 229 234 233 237 232 229 229 226 224 223 219 210 210 209 209 213 214 215 212 212 214 217 220
310 310 306 300 291 277 272 267 261 254 248 247 244 239 233 231 224 221 232 235 228 227 230 234 233 228 227 225 224 221 216 210 206 209 209 212 215 217 219 218 218 222 226
313 311 304 296 285 276 277 270 265 264 253 246 246 241 237 235 228 228 229 231 237 219 226 232 233 229 224 219 219 217 215 211 210 211 210 212 215 218 219 222 223 224 227
313 308 303 298 289 278 277 273 271 265 256 248 244 243 237 234 235 238 236 239 238 232 218 227 230 227 222 220 217 219 217 214 215 213 213 212 215 218 220 224 225 227 228
315 307 303 299 291 283 280 277 282 274 250 247 247 244 241 236 235 233 236 242 244 232 222 222 226 226 226 222 220 222 219 218 217 217 216 216 218 221 224 226 227 229 231
322 308 307 303 297 288 279 281 281 276 253 245 247 246 240 236 235 231 236 236 235 231 222 215 225 225 222 223 220 218 220 226 225 222 222 222 222 223 225 227 229 231 233
331 307 304 299 297 290 299 301 291 262 246 250 248 257 240 234 237 233 230 225 224 230 224 217 221 222 220 221 221 222 221 220 219 222 230 231 231 231 231 232 232 232 233
336 308 301 300 301 294 302 298 285 246 246 236 234 239 248 234 219 228 234 218 221 230 231 221 218 223 218 216 218 222 224 227 227 225 226 226 231 235 236 236 236 238 238